[[{"header":{"parameterUnit":"m.s-1","parameterCategory":1,"la1":30.2991,"la2":30.254,"lo1":-89.0895,"lo2":-89.0444,"dy":0.0017,"dx":0.0017,"nx":28,"ny":28,"refTime":"2024-10-11T21:00:00:Z","depth":0,"parameterNumber":2,"parameterNumberName":"U-component_of_WINDS"},"data":[0,0,0,0,0,0,0,0,0,0,0,0,0,0,0,0,0,0,0,0,0,0,0,0,0,0,0,0,0,0,0,0,0,0,0,0,0,0,0,0,0,0,0,0,0,0,0,0,0,0,0,0,0,0,0,0,0,0,-0.4622,-0.4622,0,-0.462,-0.462,-0.462,-0.4583,-0.4582,-0.4581,-0.458,-0.4579,-0.458,-0.4581,0,0,0,0,0,0,0,0,0,0,0,0,0,-0.4599,-0.4599,-0.4622,-0.4622,-0.4622,-0.462,-0.462,-0.462,-0.4583,-0.4582,-0.4581,-0.458,-0.4579,-0.458,-0.4581,0,0,0,0,0,0,0,0,0,0,0,0,0,-0.4604,-0.46,-0.4622,-0.4604,-0.4602,-0.462,-0.462,-0.462,-0.4583,-0.4582,-0.458,-0.4579,-0.4579,-0.458,-0.4581,-0.4617,0,0,-0.4585,-0.4585,0,0,0,0,0,0,0,0,-0.4604,-0.4605,-0.4606,-0.4605,-0.4603,-0.46,-0.4611,-0.4619,-0.4584,-0.459,-0.458,-0.4578,-0.4587,-0.4588,-0.459,-0.4617,-0.4617,-0.4585,-0.4586,-0.4586,-0.4587,0,0,0,0,0,0,0,-0.4603,-0.4605,-0.4621,-0.4607,-0.4605,-0.4596,-0.4596,-0.4612,-0.4597,-0.459,-0.4587,-0.4587,-0.4586,-0.4589,-0.459,-0.4617,-0.4585,-0.4586,-0.4587,-0.4587,-0.4676,-0.4677,0,0,0,0,0,0,-0.4605,-0.4605,-0.4621,-0.4621,-0.46,-0.4598,-0.4597,-0.4603,-0.4597,-0.4594,-0.4588,-0.4585,-0.4588,-0.4589,-0.459,-0.4634,-0.4586,-0.4588,-0.4588,-0.4674,-0.4676,-0.4678,0,0,0,0,0,0,-0.4605,-0.4607,-0.4622,-0.4612,-0.4613,-0.46,-0.4606,-0.4603,-0.4606,-0.4596,-0.4593,-0.4594,-0.4587,-0.4588,-0.4611,-0.4633,-0.4588,-0.4589,-0.4672,-0.4675,-0.4677,-0.472,0,0,0,0,0,0,-0.4604,-0.4607,-0.462,-0.4613,-0.4614,-0.4642,-0.4608,-0.4604,-0.4608,-0.4605,-0.46,-0.4598,-0.4586,-0.4609,-0.4612,-0.4634,-0.459,-0.467,-0.4673,-0.4676,-0.4717,-0.4724,-0.473,0,0,0,0,0,-0.4604,-0.4632,-0.4621,-0.4623,-0.463,-0.4643,-0.4644,-0.4629,-0.461,-0.4624,-0.4617,-0.4598,-0.463,-0.4612,-0.4615,-0.4637,-0.4669,-0.4672,-0.4676,-0.4714,-0.4722,-0.473,0,0,0,0,0,0,-0.4642,-0.4631,-0.4618,-0.4645,-0.4645,-0.4637,-0.4653,-0.4638,-0.4644,-0.464,-0.4621,-0.4621,-0.4647,-0.4644,-0.4624,-0.4673,-0.4646,-0.4651,-0.4674,-0.4682,-0.4688,-0.4689,-0.4591,0,0,0,0,0,-0.4654,-0.4665,-0.4655,-0.4679,-0.468,-0.4667,-0.4672,-0.466,-0.466,-0.466,-0.4655,-0.4657,-0.4667,-0.4674,-0.4683,-0.4716,-0.4716,-0.4733,-0.474,-0.4745,-0.4749,-0.4769,-0.4777,-0.4689,-0.4689,-0.4689,0,0,-0.4678,-0.4673,-0.4681,-0.4687,-0.4686,-0.4699,-0.4667,-0.4682,-0.4692,-0.4663,-0.4684,-0.4681,-0.4681,-0.471,-0.4722,-0.4709,-0.4773,-0.4749,-0.4754,-0.4755,-0.4773,-0.4782,-0.4789,-0.4692,-0.4691,-0.4691,0,0,-0.4729,-0.4726,-0.4747,-0.4747,-0.4746,-0.4737,-0.4742,-0.4737,-0.4733,-0.4754,-0.4733,-0.4745,-0.4763,-0.4765,-0.4768,-0.4822,-0.4806,-0.4825,-0.4859,-0.4879,-0.4886,-0.4892,-0.4913,-0.492,-0.4829,-0.4829,-0.4829,0,-0.476,-0.4778,-0.476,-0.4777,-0.4781,-0.4755,-0.4777,-0.4778,-0.478,-0.4784,-0.4768,-0.4792,-0.479,-0.4819,-0.4833,-0.4836,-0.4842,-0.4826,-0.4886,-0.4892,-0.4897,-0.4917,-0.4925,-0.4832,-0.4832,-0.4831,-0.4831,0,-0.4817,-0.483,-0.4847,-0.485,-0.4856,-0.4875,-0.4862,-0.487,-0.4858,-0.4851,-0.4875,-0.4872,-0.488,-0.4886,-0.4875,-0.4915,-0.4907,-0.4889,-0.4862,-0.4908,-0.4927,-0.4934,-0.4836,-0.4835,-0.4834,-0.4833,0,0,-0.4892,-0.4885,-0.4892,-0.4894,-0.4892,-0.4902,-0.4921,-0.4929,-0.4938,-0.494,-0.4957,-0.4973,-0.4957,-0.4961,-0.4949,-0.4966,-0.5011,-0.4946,-0.4946,-0.496,-0.5058,-0.5073,-0.5082,-0.5,-0.5002,-0.5003,-0.5059,0,-0.4943,-0.4974,-0.496,-0.4993,-0.5007,-0.4983,-0.5,-0.5001,-0.4995,-0.5006,-0.5,-0.5013,-0.499,-0.4992,-0.5008,-0.5003,-0.5031,-0.4998,-0.5017,-0.5018,-0.5019,-0.5091,-0.5106,-0.5159,-0.5066,-0.5067,-0.5068,0,-0.5006,-0.5012,-0.5047,-0.5044,-0.5049,-0.5064,-0.5071,-0.5082,-0.5083,-0.5078,-0.5083,-0.5068,-0.5089,-0.5061,-0.5089,-0.5067,-0.5074,-0.5073,-0.5075,-0.5077,-0.5047,-0.5097,-0.5176,-0.5184,-0.5079,-0.5078,-0.5077,0,-0.506,-0.5076,-0.51,-0.5102,-0.5098,-0.511,-0.5109,-0.5109,-0.5115,-0.5122,-0.5127,-0.5136,-0.5141,-0.5149,-0.5138,-0.5118,-0.5169,-0.514,-0.5167,-0.5167,-0.5179,-0.5179,-0.5262,-0.5181,-0.5181,-0.5181,-0.5181,0,-0.5119,-0.5142,-0.5124,-0.5139,-0.5164,-0.5148,-0.5174,-0.517,-0.5171,-0.5186,-0.5165,-0.518,-0.5163,-0.5177,-0.5168,-0.5194,-0.5196,-0.5194,-0.5192,-0.5197,-0.5197,-0.5202,-0.5198,-0.5183,-0.5183,-0.5182,-0.5182,0,-0.5183,-0.5172,-0.5196,-0.5191,-0.5191,-0.521,-0.5206,-0.522,-0.5214,-0.5233,-0.5236,-0.5227,-0.5241,-0.5231,-0.5245,-0.524,-0.5275,-0.5266,-0.5274,-0.5272,-0.5301,-0.5299,-0.539,-0.5403,-0.5313,-0.5314,-0.5315,0,-0.5222,-0.5239,-0.5236,-0.5245,-0.5245,-0.5258,-0.5265,-0.525,-0.5258,-0.5262,-0.5276,-0.5289,-0.5299,-0.5324,-0.5319,-0.5331,-0.5324,-0.5355,-0.5325,-0.533,-0.5326,-0.5326,-0.5328,-0.5361,-0.5363,-0.5363,-0.5364,0,-0.5293,-0.5287,-0.5297,-0.5306,-0.5315,-0.5321,-0.5326,-0.5334,-0.5319,-0.5329,-0.5344,-0.5352,-0.5367,-0.5381,-0.5391,-0.5391,-0.5376,-0.5373,-0.5381,-0.5386,-0.5391,-0.5391,-0.5292,-0.5372,-0.5371,-0.537,-0.537,-0.537,-0.5347,-0.5362,-0.5363,-0.5375,-0.5377,-0.5383,-0.5396,-0.5392,-0.5404,-0.5415,-0.5405,-0.5424,-0.5427,-0.5438,-0.5441,-0.5456,-0.5443,-0.5453,-0.5456,-0.5459,-0.5464,-0.5388,-0.5458,-0.5457,-0.5457,-0.5457,-0.5457,0,-0.5419,-0.5418,-0.543,-0.5437,-0.5448,-0.5431,-0.5436,-0.5447,-0.5463,-0.5466,-0.5477,-0.5495,-0.5509,-0.5505,-0.5518,-0.5531,-0.5524,-0.5535,-0.5534,-0.5535,-0.5474,-0.5467,-0.554,-0.554,-0.554,-0.554,-0.554,-0.554,-0.5457,-0.5482,-0.5476,-0.5503,-0.5502,-0.552,-0.5524,-0.553,-0.5533,-0.5554,-0.5565,-0.5562,-0.5564,-0.5577,-0.5589,-0.5588,-0.5595,-0.5608,-0.5605,-0.5547,-0.5539,-0.5531,-0.5525,-0.5609,-0.5609,-0.5665,-0.5665,-0.5666]},{"header":{"parameterUnit":"m.s-1","parameterCategory":1,"la1":30.2991,"la2":30.254,"lo1":-89.0895,"lo2":-89.0444,"dy":0.0017,"dx":0.0017,"nx":28,"ny":28,"refTime":"2024-10-11T21:00:00:Z","depth":0,"parameterNumber":3,"parameterNumberName":"V-component_of_WINDS"},"data":[0,0,0,0,0,0,0,0,0,0,0,0,0,0,0,0,0,0,0,0,0,0,0,0,0,0,0,0,0,0,0,0,0,0,0,0,0,0,0,0,0,0,0,0,0,0,0,0,0,0,0,0,0,0,0,0,0,0,2.1205,2.1204,0,2.1149,2.1149,2.1148,2.1145,2.1146,2.1146,2.1147,2.1084,2.1082,2.1079,0,0,0,0,0,0,0,0,0,0,0,0,0,2.1303,2.1301,2.1205,2.1204,2.1204,2.115,2.1149,2.1148,2.1145,2.1146,2.1147,2.1147,2.1085,2.1082,2.1079,0,0,0,0,0,0,0,0,0,0,0,0,0,2.1255,2.13,2.1205,2.1196,2.1194,2.115,2.1149,2.1148,2.1145,2.1146,2.1147,2.1148,2.1085,2.1082,2.1079,2.1038,0,0,2.1068,2.1067,0,0,0,0,0,0,0,0,2.1258,2.1251,2.1198,2.1196,2.1195,2.1155,2.116,2.1111,2.1145,2.1163,2.1147,2.1148,2.1106,2.1101,2.1089,2.1035,2.1032,2.1068,2.1066,2.1064,2.1063,0,0,0,0,0,0,0,2.1261,2.1254,2.1183,2.1197,2.1195,2.1192,2.1187,2.1151,2.113,2.1162,2.1162,2.1155,2.1106,2.1092,2.1087,2.1031,2.1068,2.1065,2.1063,2.1061,2.0939,2.0938,0,0,0,0,0,0,2.1267,2.1256,2.1185,2.1181,2.123,2.119,2.1184,2.1167,2.113,2.1126,2.1155,2.1155,2.1097,2.1091,2.1085,2.1033,2.1064,2.1061,2.1059,2.094,2.0939,2.0938,0,0,0,0,0,0,2.1269,2.1261,2.1187,2.1219,2.1209,2.1187,2.1169,2.1165,2.1151,2.1125,2.1121,2.1145,2.1098,2.109,2.105,2.1031,2.106,2.1056,2.0942,2.094,2.0938,2.093,0,0,0,0,0,0,2.1272,2.1261,2.1247,2.1219,2.1208,2.1154,2.1167,2.1163,2.1146,2.1147,2.1114,2.111,2.1098,2.1055,2.1046,2.1027,2.1054,2.0943,2.0941,2.0939,2.0932,2.0928,2.0925,0,0,0,0,0,2.1275,2.1246,2.1246,2.1238,2.1189,2.1153,2.1147,2.1136,2.1145,2.1129,2.1112,2.1111,2.1035,2.1051,2.1041,2.102,2.0944,2.0942,2.0939,2.0933,2.0929,2.0925,0,0,0,0,0,0,2.1271,2.1242,2.1242,2.1203,2.1181,2.1153,2.1133,2.1131,2.1105,2.1106,2.1091,2.1084,2.1044,2.1028,2.1046,2.0978,2.099,2.0985,2.0989,2.0985,2.0981,2.0985,2.1051,0,0,0,0,0,2.1265,2.124,2.1216,2.1184,2.1173,2.1155,2.1139,2.1132,2.1108,2.1098,2.1078,2.1052,2.1023,2.1003,2.0974,2.093,2.0922,2.0911,2.0907,2.0905,2.09,2.0874,2.0868,2.0929,2.0929,2.0929,0,0,2.1253,2.1235,2.1219,2.1182,2.1164,2.1137,2.1147,2.1117,2.1096,2.1093,2.1054,2.1038,2.1009,2.0966,2.0946,2.0952,2.0882,2.0901,2.09,2.0896,2.087,2.0865,2.0859,2.0927,2.0927,2.0928,0,0,2.1217,2.1202,2.1172,2.1155,2.1128,2.1116,2.1109,2.1082,2.1072,2.1033,2.103,2.1003,2.0953,2.0932,2.0914,2.087,2.0867,2.0861,2.0843,2.0817,2.0812,2.0808,2.079,2.0784,2.0857,2.0857,2.0857,0,2.1205,2.1165,2.1157,2.1128,2.111,2.1108,2.1077,2.106,2.1024,2.1011,2.1019,2.0955,2.0935,2.0887,2.0876,2.0863,2.0853,2.0864,2.0814,2.081,2.0805,2.0788,2.0782,2.0857,2.0857,2.0857,2.0857,0,2.1151,2.1123,2.1102,2.107,2.1051,2.1021,2.1006,2.0987,2.0982,2.0969,2.0928,2.0905,2.0871,2.0859,2.0853,2.0809,2.0813,2.0818,2.083,2.0799,2.0782,2.0776,2.0855,2.0856,2.0856,2.0856,0,0,2.1109,2.1073,2.1065,2.105,2.1021,2.0998,2.0967,2.0936,2.0919,2.0895,2.0867,2.0824,2.0828,2.0809,2.0801,2.0778,2.0743,2.0785,2.0784,2.0776,2.069,2.0685,2.0678,2.0742,2.0741,2.074,2.0692,0,2.1068,2.1015,2.1006,2.0959,2.0932,2.0929,2.0902,2.088,2.0867,2.0841,2.0826,2.0795,2.0804,2.0792,2.077,2.0752,2.0725,2.0755,2.0713,2.0711,2.0718,2.067,2.0665,2.0621,2.0686,2.0685,2.0684,0,2.1013,2.0989,2.0939,2.0913,2.0901,2.0877,2.0847,2.0823,2.0797,2.0789,2.0767,2.0762,2.0727,2.0743,2.0694,2.0715,2.0697,2.0685,2.0683,2.0677,2.0694,2.066,2.0607,2.06,2.0674,2.0675,2.0675,0,2.0985,2.094,2.0904,2.0891,2.086,2.0843,2.0829,2.0804,2.0786,2.0759,2.0746,2.0715,2.0698,2.0673,2.0658,2.0671,2.061,2.0624,2.0599,2.06,2.0585,2.0585,2.0526,2.0577,2.0577,2.0577,2.0578,0,2.0939,2.0908,2.0891,2.0868,2.0833,2.0823,2.0787,2.0773,2.0752,2.0725,2.0721,2.0695,2.0679,2.0651,2.0639,2.0599,2.0592,2.0582,2.0579,2.0581,2.0582,2.0567,2.0569,2.0576,2.0576,2.0576,2.0577,0,2.09,2.0888,2.0848,2.0823,2.0815,2.079,2.0767,2.0744,2.0732,2.0698,2.0689,2.0669,2.0635,2.0619,2.0577,2.0569,2.0523,2.0523,2.0532,2.053,2.0506,2.0507,2.0433,2.0421,2.0482,2.0482,2.0481,0,2.0871,2.0847,2.0819,2.0802,2.0788,2.076,2.0741,2.073,2.071,2.0679,2.0659,2.0626,2.0599,2.0545,2.0525,2.0492,2.0489,2.0466,2.0484,2.0487,2.0486,2.0487,2.0483,2.0461,2.0461,2.046,2.046,0,2.0819,2.0814,2.0788,2.076,2.0738,2.0715,2.0692,2.0678,2.0663,2.064,2.0607,2.0586,2.0543,2.0509,2.0475,2.0458,2.0455,2.0455,2.0447,2.0448,2.0453,2.0447,2.052,2.0456,2.0456,2.0457,2.0457,2.0457,2.0782,2.076,2.0737,2.0708,2.069,2.0669,2.0646,2.0631,2.0604,2.057,2.0565,2.0528,2.0502,2.0456,2.0438,2.0408,2.0413,2.0402,2.0399,2.0396,2.0394,2.046,2.0402,2.0402,2.0402,2.0402,2.0403,0,2.0728,2.0713,2.0687,2.0656,2.0632,2.0635,2.0609,2.0589,2.0558,2.0535,2.0508,2.0469,2.0436,2.0414,2.038,2.036,2.0357,2.0351,2.0351,2.0347,2.0392,2.0401,2.0353,2.0353,2.0353,2.0353,2.0353,2.0353,2.0697,2.066,2.0652,2.0605,2.059,2.0556,2.0541,2.0521,2.0502,2.0459,2.0432,2.0419,2.0395,2.036,2.0329,2.0323,2.0309,2.0302,2.0296,2.0339,2.0344,2.0348,2.0357,2.03,2.03,2.0253,2.0252,2.0252]}]]